| time (UTC) | temp F | wind direction | speed MPH | gust MPH | rain 1hr in | rain 24hr in | rain mn in | humidity % | barometer mb |
| 20260505121502 | 49 | 87 | 2.0 | 4.0 | 0.00 | 0.00 | 0.00 | 89 | 1004.5 |
| 20260505120602 | 50 | 88 | 3.0 | 4.0 | 0.00 | 0.00 | 0.00 | 88 | 1004.5 |
| 20260505114802 | 50 | 102 | 2.0 | 3.0 | 0.00 | 0.00 | 0.00 | 89 | 1004.3 |
| 20260505112102 | 51 | 95 | 2.0 | 4.0 | 0.00 | 0.00 | 0.00 | 88 | 1004.1 |
| 20260505111202 | 51 | 99 | 2.0 | 4.0 | 0.00 | 0.00 | 0.00 | 89 | 1004.0 |
| 20260505110302 | 51 | 84 | 2.0 | 4.0 | 0.00 | 0.00 | 0.00 | 88 | 1003.8 |
| 20260505101802 | 51 | 86 | 2.0 | 4.0 | 0.00 | 0.00 | 0.00 | 89 | 1003.4 |
| 20260505100902 | 52 | 97 | 2.0 | 4.0 | 0.00 | 0.00 | 0.00 | 88 | 1003.3 |
| 20260505100002 | 52 | 92 | 1.0 | 3.0 | 0.00 | 0.00 | 0.00 | 88 | 1003.1 |
| 20260505095102 | 52 | 86 | 2.0 | 4.0 | 0.00 | 0.00 | 0.00 | 88 | 1003.1 |
| 20260505094202 | 52 | 92 | 1.0 | 4.0 | 0.00 | 0.00 | 0.00 | 89 | 1003.1 |
| 20260505092402 | 52 | 86 | 2.0 | 3.0 | 0.00 | 0.00 | 0.00 | 88 | 1003.0 |
| 20260505091502 | 53 | 82 | 0.0 | 3.0 | 0.00 | 0.00 | 0.00 | 87 | 1003.1 |
| 20260505085702 | 54 | 80 | 2.0 | 4.0 | 0.00 | 0.00 | 0.00 | 86 | 1002.9 |
| 20260505084802 | 54 | 88 | 2.0 | 4.0 | 0.00 | 0.00 | 0.00 | 85 | 1002.8 |
| 20260505083902 | 55 | 78 | 2.0 | 4.0 | 0.00 | 0.00 | 0.00 | 84 | 1002.7 |
| 20260505082102 | 56 | 94 | 3.0 | 5.0 | 0.00 | 0.00 | 0.00 | 84 | 1002.6 |
| 20260505081202 | 55 | 96 | 3.0 | 5.0 | 0.00 | 0.00 | 0.00 | 85 | 1002.5 |
| 20260505075402 | 56 | 93 | 2.0 | 3.0 | 0.00 | 0.00 | 0.00 | 84 | 1002.3 |
| 20260505074502 | 55 | 101 | 2.0 | 3.0 | 0.00 | 0.00 | 0.00 | 85 | 1002.3 |
| 20260505073602 | 56 | 97 | 0.0 | 2.0 | 0.00 | 0.00 | 0.00 | 83 | 1002.3 |
| 20260505071802 | 56 | 259 | 3.0 | 11.0 | 0.00 | 0.00 | 0.00 | 82 | 1002.4 |
| 20260505070002 | 57 | 97 | 1.0 | 3.0 | 0.00 | 0.00 | 0.00 | 81 | 1001.8 |
| 20260505064202 | 58 | 98 | 2.0 | 4.0 | 0.00 | 0.00 | 0.00 | 80 | 1001.6 |
| 20260505063302 | 58 | 84 | 2.0 | 4.0 | 0.00 | 0.00 | 0.00 | 79 | 1001.6 |
| 20260505061502 | 59 | 78 | 0.0 | 2.0 | 0.00 | 0.00 | 0.00 | 79 | 1001.5 |
| 20260505060602 | 59 | 75 | 2.0 | 5.0 | 0.00 | 0.00 | 0.00 | 79 | 1001.4 |
| 20260505054802 | 59 | 80 | 3.0 | 5.0 | 0.00 | 0.00 | 0.00 | 79 | 1001.3 |
| 20260505053002 | 60 | 80 | 1.0 | 4.0 | 0.00 | 0.00 | 0.00 | 78 | 1001.3 |
| 20260505050302 | 62 | 76 | 2.0 | 5.0 | 0.00 | 0.00 | 0.00 | 73 | 1001.2 |
| 20260505035102 | 66 | 102 | 3.0 | 7.0 | 0.00 | 0.00 | 0.00 | 64 | 1000.5 |
| 20260505031502 | 70 | 101 | 2.0 | 4.0 | 0.00 | 0.00 | 0.00 | 59 | 1000.2 |
| 20260505030602 | 72 | 106 | 4.0 | 5.0 | 0.00 | 0.00 | 0.00 | 54 | 1000.0 |
| 20260505025702 | 73 | 106 | 4.0 | 6.0 | 0.00 | 0.00 | 0.00 | 55 | 1000.0 |
| 20260505024802 | 73 | 107 | 3.0 | 6.0 | 0.00 | 0.00 | 0.00 | 57 | 999.9 |
| 20260505023902 | 74 | 108 | 3.0 | 4.0 | 0.00 | 0.00 | 0.00 | 56 | 1000.0 |
| 20260505023002 | 77 | 120 | 1.0 | 4.0 | 0.00 | 0.00 | 0.00 | 53 | 999.9 |
| 20260505022102 | 80 | 160 | 2.0 | 4.0 | 0.00 | 0.00 | 0.00 | 44 | 1000.0 |
| 20260505014502 | 82 | 147 | 0.0 | 4.0 | 0.00 | 0.00 | 0.00 | 43 | 1000.1 |
| 20260505013602 | 82 | 118 | 1.0 | 3.0 | 0.00 | 0.00 | 0.00 | 41 | 1000.2 |
| 20260505012702 | 83 | 121 | 1.0 | 4.0 | 0.00 | 0.00 | 0.00 | 41 | 1000.3 |
| 20260505011802 | 84 | 147 | 1.0 | 4.0 | 0.00 | 0.00 | 0.00 | 40 | 1000.4 |
| 20260505010902 | 84 | 154 | 1.0 | 5.0 | 0.00 | 0.00 | 0.00 | 40 | 1000.4 |
| 20260505010003 | 83 | 117 | 4.0 | 8.0 | 0.00 | 0.00 | 0.00 | 37 | 1000.5 |
| 20260505005102 | 84 | 117 | 4.0 | 8.0 | 0.00 | 0.00 | 0.00 | 36 | 1000.4 |
| 20260505004202 | 84 | 120 | 3.0 | 9.0 | 0.00 | 0.00 | 0.00 | 37 | 1000.5 |
| 20260505003302 | 86 | 149 | 3.0 | 5.0 | 0.00 | 0.00 | 0.00 | 33 | 1000.6 |
| 20260505002402 | 86 | 148 | 3.0 | 7.0 | 0.00 | 0.00 | 0.00 | 34 | 1000.7 |
| 20260505001502 | 86 | 144 | 3.0 | 6.0 | 0.00 | 0.00 | 0.00 | 32 | 1000.8 |
| 20260504235702 | 86 | 251 | 2.0 | 4.0 | 0.00 | 0.00 | 0.00 | 30 | 1000.8 |
| 20260504234802 | 86 | 257 | 2.0 | 5.0 | 0.00 | 0.00 | 0.00 | 31 | 1000.8 |
| 20260504233902 | 86 | 113 | 0.0 | 4.0 | 0.00 | 0.00 | 0.00 | 30 | 1000.9 |
| 20260504233002 | 86 | 116 | 1.0 | 4.0 | 0.00 | 0.00 | 0.00 | 29 | 1000.9 |
| 20260504231202 | 86 | 252 | 2.0 | 6.0 | 0.00 | 0.00 | 0.00 | 32 | 1001.0 |
| 20260504230302 | 86 | 196 | 2.0 | 6.0 | 0.00 | 0.00 | 0.00 | 30 | 1001.2 |
| 20260504225402 | 86 | 201 | 2.0 | 5.0 | 0.00 | 0.00 | 0.00 | 28 | 1001.2 |
| 20260504224502 | 85 | 145 | 2.0 | 6.0 | 0.00 | 0.00 | 0.00 | 29 | 1001.3 |
| 20260504223602 | 84 | 106 | 2.0 | 6.0 | 0.00 | 0.00 | 0.00 | 30 | 1001.5 |
| 20260504222702 | 85 | 109 | 4.0 | 12.0 | 0.00 | 0.00 | 0.00 | 30 | 1001.6 |
| 20260504221802 | 85 | 239 | 2.0 | 5.0 | 0.00 | 0.00 | 0.00 | 30 | 1001.6 |
| 20260504220902 | 85 | 224 | 2.0 | 8.0 | 0.00 | 0.00 | 0.00 | 31 | 1001.8 |
| 20260504220002 | 84 | 246 | 1.0 | 8.0 | 0.00 | 0.00 | 0.00 | 33 | 1001.8 |
| 20260504215102 | 84 | 236 | 0.0 | 3.0 | 0.00 | 0.00 | 0.00 | 31 | 1001.9 |
| 20260504214202 | 83 | 258 | 4.0 | 6.0 | 0.00 | 0.00 | 0.00 | 31 | 1002.1 |
| 20260504213302 | 83 | 239 | 3.0 | 8.0 | 0.00 | 0.00 | 0.00 | 34 | 1002.2 |
| 20260504212402 | 83 | 252 | 3.0 | 8.0 | 0.00 | 0.00 | 0.00 | 34 | 1002.3 |
| 20260504210602 | 82 | 250 | 4.0 | 7.0 | 0.00 | 0.00 | 0.00 | 37 | 1002.5 |
| 20260504205702 | 82 | 256 | 3.0 | 7.0 | 0.00 | 0.00 | 0.00 | 36 | 1002.6 |
| 20260504204802 | 82 | 262 | 3.0 | 8.0 | 0.00 | 0.00 | 0.00 | 30 | 1002.7 |
| 20260504203902 | 82 | 257 | 4.0 | 7.0 | 0.00 | 0.00 | 0.00 | 32 | 1002.8 |
| 20260504203002 | 82 | 259 | 3.0 | 7.0 | 0.00 | 0.00 | 0.00 | 38 | 1002.9 |
| 20260504202102 | 81 | 259 | 3.0 | 7.0 | 0.00 | 0.00 | 0.00 | 32 | 1003.0 |
| 20260504201202 | 81 | 273 | 2.0 | 7.0 | 0.00 | 0.00 | 0.00 | 34 | 1003.1 |
| 20260504200304 | 81 | 274 | 2.0 | 5.0 | 0.00 | 0.00 | 0.00 | 39 | 1003.1 |
| 20260504194502 | 79 | 274 | 3.0 | 7.0 | 0.00 | 0.00 | 0.00 | 38 | 1003.2 |
| 20260504193603 | 79 | 270 | 3.0 | 7.0 | 0.00 | 0.00 | 0.00 | 35 | 1003.2 |
| 20260504192702 | 79 | 263 | 4.0 | 7.0 | 0.00 | 0.00 | 0.00 | 37 | 1003.3 |
| 20260504191802 | 78 | 261 | 4.0 | 7.0 | 0.00 | 0.00 | 0.00 | 39 | 1003.3 |
| 20260504185103 | 77 | 270 | 3.0 | 7.0 | 0.00 | 0.00 | 0.00 | 38 | 1003.4 |
| 20260504184202 | 77 | 272 | 3.0 | 6.0 | 0.00 | 0.00 | 0.00 | 39 | 1003.5 |
| 20260504183303 | 77 | 269 | 4.0 | 8.0 | 0.00 | 0.00 | 0.00 | 37 | 1003.6 |
| 20260504182402 | 77 | 287 | 2.0 | 5.0 | 0.00 | 0.00 | 0.00 | 39 | 1003.6 |
| 20260504180603 | 77 | 317 | 1.0 | 5.0 | 0.00 | 0.00 | 0.00 | 42 | 1003.8 |
| 20260504175703 | 76 | 285 | 2.0 | 5.0 | 0.00 | 0.00 | 0.00 | 43 | 1003.9 |
| 20260504174803 | 75 | 291 | 1.0 | 5.0 | 0.00 | 0.00 | 0.00 | 47 | 1003.8 |
| 20260504173902 | 74 | 275 | 2.0 | 5.0 | 0.00 | 0.00 | 0.00 | 51 | 1003.8 |
| 20260504173002 | 73 | 274 | 3.0 | 6.0 | 0.00 | 0.00 | 0.00 | 49 | 1003.7 |
| 20260504172102 | 73 | 263 | 5.0 | 8.0 | 0.00 | 0.00 | 0.00 | 49 | 1003.8 |
| 20260504171203 | 72 | 266 | 3.0 | 8.0 | 0.00 | 0.00 | 0.00 | 50 | 1003.7 |
| 20260504170303 | 71 | 273 | 3.0 | 7.0 | 0.00 | 0.00 | 0.00 | 54 | 1003.9 |
| 20260504141203 | 52 | 125 | 0.0 | 1.0 | 0.00 | 0.00 | 0.00 | 87 | 1003.8 |
| 20260504140303 | 50 | 124 | 0.0 | 1.0 | 0.00 | 0.00 | 0.00 | 89 | 1003.8 |